Location: Drebach
(50.6670°N, 13.0330°E)
Time: 06:53:15
(UTC+01:00)

ISS - Pass Details

Date: 02 February 2021
Orbit: 417 x 422 km, 51.6° (Epoch: 08 March)

Event Time Altitude Azimuth Distance (km) Brightness Sun altitude
Rises 19:42:29 0° 282° (WNW) 2,375 1.4 -25.5°
Reaches altitude 10° 19:45:05 10° 262° (W) 1,507 0.0 -25.9°
Enters shadow 19:47:08 17° 225° (SW) 1,153 -1.1 -26.2°
